Погода в Канзас-Сити

США     39°06′10″N   94°37′33″W
темп.,
°C
ветер,
м/с
пор.,
м/с
влажн.,
%
обл.,
%
осадки,
мм/ч
давл.,
гПа
погр.,
м
19 апреля, пн
пн1901:00+6ююз36690 0.0 1016104
04:00+5юз49726 0.0 1015156
07:00+5з39770 0.0 1016199
10:00+10ссз567231 0.0 1016735
13:00+9с5669100 0.0 1018998
16:00+10с5557100 0.0 10171341
19:00+6с796472 0.0 1020903
22:00+2с5108051 0.0 1022626
20 апреля, вт
вт2001:00+2ссв4876100 0.0 1021593
04:00+1с4998100 1.4 1021518
07:000ссв51099100 6.8 1022636
10:000с49100100 2.9 1024766
13:00+3ссз4786100 3.5 10241402
16:00+5ссз587093 0.6 10231374
19:00+4сз367492 0.9 1023275
22:00+1з22810 0.0 102428
21 апреля, ср
ср2101:000зюз34875 0.0 102464
04:00−1юз38915 0.0 1024151
07:00−1зюз38931 0.0 1024196
10:00+5сз68705 0.0 1025908
13:00+8сз7953100 0.1 10242096
16:00+9сз5947100 0.1 10232201
19:00+8сз4755100 0.1 1023701
22:00+3с236590 0.0 102560
22 апреля, чт
чт2201:00+1всв116630 0.0 102510
04:00+1ююв11653 0.0 102510
07:00+1ююз226529 0.0 102632
10:00+8ююз345082 0.0 1026583
13:00+13ююз3343100 0.0 10231720
16:00+13ююз454663 0.0 10211898
19:00+8ююз71077100 0.1 1021642
22:00+7ю4886100 0.2 1022596
23 апреля, пт
пт2301:00+6ююв41193100 0.6 1020535
04:00+6ююв41295100 0.1 1018580
07:00+7ююв51295100 0.3 1017528
10:00+7ююв51394100 0.3 1015576
13:00+8ююв41196100 1.8 1014613
16:00+9ююв3997100 0.5 1012515
19:00+9юв2598100 0.8 1011253
22:00+9юв2499100 0.2 1012147